Regional Weather Roundup
Issued by NWS

Home | Current Version | Previous Version | Graphics & Text | Print | Product List | Glossary On
Versions: 1 2 3 4 5 6 7 8 9 10 11 12 13 14 15 16 17 18 19 20 21 22 23 24 25 26 27 28 29 30 31 32 33 34 35 36 37 38 39 40 41 42 43 44 45 46 47
000
ASUS45 KTFX 291510
RWRMT
MONTANA REGIONAL WEATHER ROUNDUP
NATIONAL WEATHER SERVICE GREAT FALLS MT
900 AM MDT WED JUL 29 2015

NOTE: "FAIR" INDICATES FEW OR NO CLOUDS BELOW 12000 FEET WITH NO
SIGNIFICANT WEATHER AND/OR OBSTRUCTIONS TO VISIBILITY.

MTZ001>007-043-291600-
WEST OF THE DIVIDE

CITY           SKY/WX    TMP DP  RH WIND       PRES   REMARKS
KALISPELL      SUNNY     58  45  62 CALM      30.26R
MISSOULA         N/A     53  43  68 CALM      30.34S
BUTTE          SUNNY     48  37  65 CALM      30.39S
MULLAN PASS    SUNNY     55  34  45 CALM      30.37R
DEER LODGE       N/A     55  41  58 CALM      30.39S
EUREKA           N/A     63  46  55 S3        30.25S
HAMILTON         N/A     57  41  54 S7        30.33S
LIBBY            N/A     57  43  58 CALM      30.27S
PLAINS           N/A     55  42  61 CALM      30.27R
RONAN            N/A     60  47  62 W2        30.29S
$$

MTZ008-052>055-291600-
SOUTHWEST MONTANA

CITY           SKY/WX    TMP DP  RH WIND       PRES   REMARKS
BOZEMAN        SUNNY     57  42  57 CALM      30.35S
DILLON         SUNNY     53  41  63 W6        30.37R
W YELLOWSTONE  SUNNY     41  36  81 CALM      30.46R
TWIN BRIDGES     N/A     53  41  64 SE6       30.31S
$$

MTZ009-010-012-014-046-048-049-054-291600-
EAST SLOPES AND CENTRAL MONTANA

CITY           SKY/WX    TMP DP  RH WIND       PRES   REMARKS
CUT BANK       SUNNY     66  41  40 W13       30.21R
GREAT FALLS    SUNNY     65  41  41 SW14      30.24R
MALMSTROM AFB  SUNNY     65  42  42 SW15      30.24R
HELENA         SUNNY     62  41  46 E5        30.30S
CONRAD           N/A     68  46  45 W12       30.21R
$$

MTZ011-013-016-021-045-047-050-051-291600-
NORTH CENTRAL MONTANA

CITY           SKY/WX    TMP DP  RH WIND       PRES   REMARKS
HAVRE          SUNNY     63  46  54 SW18      30.17R
LEWISTOWN      SUNNY     63  40  42 W8        30.27R
CHINOOK          N/A     66  46  48 W10G16    30.16R
FORT BENTON      N/A     66  43  42 SW10      30.22R
$$

MTZ017>020-022>027-061-062-291600-
NORTHEAST MONTANA

CITY           SKY/WX    TMP DP  RH WIND       PRES   REMARKS
GLASGOW        SUNNY     64  50  60 CALM      30.13R
JORDAN           N/A     68  44  42 W15G22    30.17R
SIDNEY         PTSUNNY   68  48  49 W17G23    30.09R
WOLF POINT     MOSUNNY   65  52  62 W13       30.11R
MALTA            N/A     65  49  56 W13       30.09R
PLENTYWOOD       N/A     64  52  63 W16       30.04S
POPLAR           N/A     64  52  63 SW10      30.11R
SCOBEY           N/A     65  50  58 W13       30.06R
$$

MTZ028>42-056>058-291600-
SOUTHCENTRAL AND SOUTHEAST MONTANA

CITY           SKY/WX    TMP DP  RH WIND       PRES   REMARKS
BAKER          PTSUNNY   65  42  43 W15       30.19R
BILLINGS       MOSUNNY   60  39  45 SW14      30.28R
LIVINGSTON     SUNNY     65  35  33 SW17      30.32S
MILES CITY     SUNNY     68  44  42 W12       30.19R
EKALAKA          N/A     66  36  33 SW13      30.18R
FORSYTH          N/A     68  41  37 W12       30.21R
LAUREL           N/A     60  38  44 S3        30.25R
ROUNDUP          N/A     62  41  46 S5        30.15R
$$

REGIONAL REPORTS...DAKOTAS

CITY           SKY/WX    TMP DP  RH WIND       PRES   REMARKS
WILLISTON      PTSUNNY   65  51  60 W18G26    30.04R
MINOT          SUNNY     70  52  52 W22       29.93R
DICKINSON      PTSUNNY   65  46  50 W15       30.09R
BEACH          FAIR      61  46  59 W13       30.15R
CROSBY         FAIR      64  55  72 NW9       29.99R
BISMARCK       MOSUNNY   72  49  44 W21G29    30.02R
GRAND FORKS    MOSUNNY   73  54  51 W26G40    29.72R
FARGO          SUNNY     73  54  51 W24G35    29.82R
BUFFALO SD       N/A     71  40  32 W18       30.13R
RAPID CITY     SUNNY     72  44  36 W12       30.26R
$$

REGIONAL REPORTS...WYOMING/IDAHO/WASHINGTON

CITY           SKY/WX    TMP DP  RH WIND       PRES   REMARKS
GILLETTE         N/A     68  36  30 MISG      30.32R
SHERIDAN       SUNNY     70  42  36 NE3       30.30R
BUFFALO WY     SUNNY     67  34  29 SE10      30.35R
CODY           SUNNY     63  34  34 SW17      30.34S
YELLOWSTONE LA   N/A     46  38  73 SE5       30.51R
IDAHO FALLS    SUNNY     54  42  64 N5        30.37S
SALMON         SUNNY     52  43  71 CALM      30.37S
BOISE          SUNNY     67  36  31 SE7       30.26R
SPOKANE        MOSUNNY   66  41  40 SE5       30.22S
$$

REGIONAL REPORTS...ALBERTA

CITY           SKY/WX    TMP DP  RH WIND       PRES   REMARKS
EDMONTON       MOSUNNY   61  46  59 W8        30.04R
CALGARY        MOSUNNY   63  41  45 VRB2      30.14S
LETHBRIDGE     MOSUNNY   66  45  45 W9G21     30.16S
MEDICINE HAT   MOSUNNY   63  48  59 SW14      30.12R
WATERTON GATE    N/A     63  43  48 SW15G23     N/A
CARDSTON         N/A     66  39  37 W9          N/A
MILK RIVER       N/A     64  45  48 W13         N/A
ONEFOUR          N/A     61  45  55 NW17        N/A
$$

REGIONAL REPORTS...SASKATCHEWAN

CITY           SKY/WX    TMP DP  RH WIND       PRES   REMARKS
SWIFT CURRENT  SUNNY     64  50  59 MISG      30.07R
REGINA         PTSUNNY   66  55  68 NW17      29.96R
SASKATOON      MOSUNNY   66  54  63 NW14      29.94R
CYPRESS HILLS    N/A     63  45  51 NW7         N/A
VAL MARIE        N/A     66  52  59 NW12        N/A
ROCKGLEN         N/A     66  50  55 W12G20      N/A
ASSINIBOIA       N/A     63  50  63 W8          N/A
$$



USA.gov is the U.S. government's official web portal to all federal, state and local government web resources and services.